Погода в Крутом

Россия / Орловская область     52°11′17″N   36°52′07″E
темп.,
°C
ветер,
м/с
пор.,
м/с
влажн.,
%
обл.,
%
осадки,
мм/ч
давл.,
гПа
погр.,
м
14 мая, пт
пт1400:00+9вюв33879 0.0 101523
03:00+10вюв359485 0.0 101684
06:00+10вюв489571 0.0 1015191
09:00+16вюв5882100 0.4 1014456
12:00+19вюв6117743 0.0 1013879
15:00+22ююв7127040 1.3 10101387
18:00+20ююв61175100 0.2 1010960
21:00+16ююв4129196 0.5 1010283
15 мая, сб
сб1500:00+14ю369672 2.8 1010109
03:00+14ююз229499 2.9 101021
06:00+14ююз3490100 0.0 101074
09:00+17ююз477880 0.0 1011378
12:00+21ююз68590 0.0 10111488
15:00+21юз79562 0.0 10112056
18:00+18юз597128 0.6 1012629
21:00+14ююз368859 0.6 101397
16 мая, вс
вс1600:00+12юз349196 0.0 101361
03:00+13юз228776 0.0 101416
06:00+14ю22865 0.0 101458
09:00+19ююв23693 0.0 1014496
12:00+22ююз45530 0.8 10141644
15:00+23ююз454991 0.8 10132112
18:00+22зсз2265100 0.0 101299
21:00+16ссв227414 0.0 101316
17 мая, пн
пн1700:00+15св348295 0.0 101256
03:00+14всв488762 0.3 1012120
06:00+14всв499292 0.0 1011189
09:00+20вюв697292 0.0 1010404
12:00+25юв69515 0.0 1009903
15:00+26вюв712555 0.0 10081977
18:00+23юв7146496 0.0 1007610
21:00+18вюв514757 0.0 1007325
18 мая, вт
вт1800:00+15юв498911 0.0 1007151
03:00+15ююв339265 0.0 100739
06:00+16ююз119148 0.0 100753
09:00+19юз228194 0.2 1007503
12:00+18з5588100 0.3 1008441
15:00+17з468796 2.4 1009467
18:00+18з358081 0.0 1009278
21:00+15ююз1289100 0.0 101011